GW0084 Weather Reports


time (UTC)temp
C
wind
direction
speed
KPH
gust
KPH
rain 1hr
cm
rain 24hr
cm
rain mn
cm
humidity
%
barometer
mb
20260505124542 10 244 1.6 11.3 0.00 0.00 0.00 49 1011.8
20260505123040 10 0 0.0 6.4 0.00 0.00 0.00 49 1011.8
20260505121545 10 253 1.6 8.0 0.00 0.00 0.00 48 1011.5
20260505120103 10 0 0.0 8.0 0.00 0.00 0.00 46 1011.4
20260505114540 10 0 1.6 12.9 0.00 0.00 0.00 45 1011.4
20260505113046 10 231 6.4 16.1 0.00 0.00 0.00 45 1011.4
20260505111543 10 0 0.0 6.4 0.00 0.00 0.00 42 1011.5
20260505101546 10 0 0.0 4.8 0.00 0.00 0.00 44 1011.3
20260505100043 10 0 0.0 6.4 0.00 0.00 0.00 43 1011.1
20260505094542 10 0 0.0 4.8 0.00 0.00 0.00 42 1011.1
20260505093043 11 0 0.0 3.2 0.00 0.00 0.00 41 1011.2
20260505091543 11 0 0.0 12.9 0.00 0.00 0.00 40 1011.4
20260505090046 11 285 1.6 14.5 0.00 0.00 0.00 39 1011.0
20260505084540 11 236 3.2 17.7 0.00 0.00 0.00 37 1011.1
20260505083037 11 262 3.2 14.5 0.00 0.00 0.00 38 1011.2
20260505081543 11 259 4.8 29.0 0.00 0.00 0.00 38 1011.6
20260505080042 11 210 8.0 29.0 0.00 0.00 0.00 37 1011.8
20260505074541 12 244 1.6 16.1 0.00 0.00 0.00 36 1011.7
20260505073058 12 318 3.2 17.7 0.00 0.00 0.00 35 1011.8
20260505071546 12 257 6.4 22.5 0.00 0.00 0.00 34 1011.6
20260505070044 12 259 3.2 17.7 0.00 0.00 0.00 33 1011.9
20260505064544 13 249 3.2 16.1 0.00 0.00 0.00 32 1011.9
20260505063041 13 0 1.6 16.1 0.00 0.00 0.00 31 1012.0
20260505061554 13 258 1.6 14.5 0.00 0.00 0.00 31 1011.9
20260505060045 13 0 1.6 11.3 0.00 0.00 0.00 31 1011.9
20260505054606 14 0 4.8 17.7 0.00 0.00 0.00 31 1012.0
20260505053058 14 210 3.2 16.1 0.00 0.00 0.00 32 1011.7
20260505051538 15 180 4.8 17.7 0.00 0.00 0.00 33 1011.6
20260505041555 15 0 0.0 8.0 0.00 0.00 0.00 32 1011.6
20260505040041 15 0 0.0 1.6 0.00 0.00 0.00 32 1011.6
20260505034549 15 0 0.0 8.0 0.00 0.00 0.00 31 1011.5
20260505033042 15 258 0.0 6.4 0.00 0.00 0.00 30 1011.6
20260505031553 15 225 3.2 12.9 0.00 0.00 0.00 30 1011.5
20260505030040 15 271 0.0 6.4 0.00 0.00 0.00 29 1011.2
20260505024544 15 275 1.6 9.7 0.00 0.00 0.00 28 1011.2
20260505023042 16 30 1.6 16.1 0.00 0.00 0.00 26 1011.0
20260505021542 16 223 4.8 20.9 0.00 0.00 0.00 25 1010.9
20260505020041 16 199 0.0 14.5 0.00 0.00 0.00 25 1010.9
20260505014540 16 260 4.8 19.3 0.00 0.00 0.00 24 1010.9
20260505013038 17 246 6.4 22.5 0.00 0.00 0.00 23 1010.6
20260505011544 17 228 6.4 14.5 0.00 0.00 0.00 21 1010.3
20260505010042 17 254 4.8 16.1 0.00 0.00 0.00 20 1010.4
20260505004548 17 228 4.8 19.3 0.00 0.00 0.00 19 1010.4
20260505003042 18 154 11.3 22.5 0.00 0.00 0.00 19 1010.4
20260505001548 18 234 6.4 19.3 0.00 0.00 0.00 19 1010.4
20260505000058 18 259 9.7 20.9 0.00 0.00 0.00 19 1010.4
20260504234541 18 262 9.7 24.1 0.00 0.00 0.00 20 1010.5
20260504233041 18 164 4.8 22.5 0.00 0.00 0.00 20 1010.5
20260504231539 19 339 9.7 25.7 0.00 0.00 0.00 20 1010.6
20260504230048 19 250 9.7 27.4 0.00 0.00 0.00 20 1010.9
20260504224546 20 265 4.8 19.3 0.00 0.00 0.00 19 1011.2
20260504223042 20 190 3.2 12.9 0.00 0.00 0.00 19 1011.4
20260504221553 19 85 3.2 20.9 0.00 0.00 0.00 19 1011.6
20260504220049 19 269 3.2 16.1 0.00 0.00 0.00 19 1011.6
20260504214544 19 252 3.2 19.3 0.00 0.00 0.00 19 1011.8
20260504213050 18 334 3.2 24.1 0.00 0.00 0.00 18 1012.1
20260504211550 18 259 4.8 27.4 0.00 0.00 0.00 17 1012.3
20260504210047 18 270 6.4 24.1 0.00 0.00 0.00 16 1012.6
20260504204546 19 205 4.8 24.1 0.00 0.00 0.00 14 1012.9
20260504203059 18 273 3.2 20.9 0.00 0.00 0.00 14 1012.9
20260504201550 18 214 9.7 22.5 0.00 0.00 0.00 13 1013.1
20260504200051 18 172 11.3 32.2 0.00 0.00 0.00 15 1013.0
20260504194550 20 165 6.4 19.3 0.00 0.00 0.00 17 1012.9
20260504193050 18 262 8.0 22.5 0.00 0.00 0.00 18 1013.2
20260504191541 18 42 3.2 20.9 0.00 0.00 0.00 22 1013.1
20260504190046 18 132 8.0 24.1 0.00 0.00 0.00 21 1013.3
20260504184542 18 229 12.9 20.9 0.00 0.00 0.00 21 1013.3
20260504183040 19 229 1.6 11.3 0.00 0.00 0.00 21 1013.4
20260504181555 19 221 1.6 11.3 0.00 0.00 0.00 22 1013.6
20260504180050 18 246 4.8 14.5 0.00 0.00 0.00 20 1013.8
20260504174543 18 238 1.6 19.3 0.00 0.00 0.00 22 1014.1
20260504173042 17 136 6.4 12.9 0.00 0.00 0.00 26 1013.9
20260504171541 17 294 3.2 8.0 0.00 0.00 0.00 30 1014.1